Find Starlink 3681

NORAD ID: 51968 Int'l Des: 2022-025 Owner: SPXS Country: US Constellation: starlink operational
LEOCIRCULAR

Live Position

Loading 3D Globe...

About Starlink 3681

Description loading...

Upcoming Passes

Passes for default location (London). Set your location on the main map for personalized predictions.

Altitude History

Loading altitude history...

Two-Line Element Set

1 51968U 22025N 26125.39255294 .00001416 00000-0 57383-4 0 9997
2 51968 53.1609 120.6484 0001108 81.1232 278.9895 15.31705579229708
Epoch: May 5, 2026 • Age: 13 hours

Current Status

Altitude 474.3 km
Velocity 7.63 km/s
Sub-Earth Point 43.37°N, 33.97°W
Launch Date Mar 9, 2022
Age 4.1 years
Type internet

Technical Details

Classification Payload
Mass 297.00 kg
Dry Mass 275.00 kg
Total Mass 297.00 kg
Length 0.20 m
Diameter 2.80 m
Span 9.00 m
Shape Box + pan
Manufacturer SPXS
Bus Type Starlink
Phase Status In Orbit
Owner/State SPXS/US

Most Searched